DAL1558 KDCA-KBOS

Flight info

Callsign DAL1558
Flight time N/A
Altitude 35000
Route SOOKI6 SWANN BROSS Q419 JFK ROBUC3
Aircraft A21N/M-SDE2E3FGHIRWXY/LB1

Departure

Time 2026-04-30 02:51
Airport Ronald Reagan Washington National Airport (KDCA)

Arrival

Time N/A
Airport Boston Logan International Airport (KBOS)
Time Latitude Longitude Altitude Speed Heading
2026-04-30 02:38 38.85268 -77.04118 27 ft 0 kts 176°
2026-04-30 02:42 38.85288 -77.04119 27 ft 4 kts 172°
2026-04-30 02:42 38.85308 -77.04128 28 ft 4 kts 110°
2026-04-30 02:43 38.85310 -77.04134 28 ft 1 kts 71°
2026-04-30 02:46 38.85316 -77.04112 28 ft 6 kts 71°
2026-04-30 02:46 38.85330 -77.04055 27 ft 7 kts 72°
2026-04-30 02:47 38.85340 -77.03984 26 ft 9 kts 82°
2026-04-30 02:47 38.85349 -77.03939 28 ft 5 kts 53°
2026-04-30 02:47 38.85360 -77.03937 27 ft 3 kts 356°
2026-04-30 02:47 38.85392 -77.03940 27 ft 4 kts 356°
2026-04-30 02:48 38.85450 -77.03945 28 ft 11 kts 356°
2026-04-30 02:48 38.85529 -77.03955 30 ft 13 kts 352°
2026-04-30 02:48 38.85593 -77.03962 30 ft 14 kts 356°
2026-04-30 02:48 38.85692 -77.03971 31 ft 14 kts 355°
2026-04-30 02:49 38.85791 -77.03981 31 ft 14 kts 356°
2026-04-30 02:49 38.85892 -77.03990 30 ft 15 kts 356°
2026-04-30 02:49 38.85996 -77.03986 29 ft 15 kts 12°
2026-04-30 02:49 38.86083 -77.03924 26 ft 11 kts 60°
2026-04-30 02:50 38.86082 -77.03885 27 ft 1 kts 144°
2026-04-30 02:50 38.86044 -77.03869 27 ft 17 kts 174°
2026-04-30 02:50 38.85713 -77.03835 28 ft 79 kts 175°
2026-04-30 02:50 38.84949 -77.03757 27 ft 144 kts 175°
2026-04-30 02:51 38.83867 -77.03659 417 ft 158 kts 176°
2026-04-30 02:51 38.82769 -77.03588 1141 ft 158 kts 178°
2026-04-30 02:51 38.81684 -77.03399 1850 ft 162 kts 175°
2026-04-30 02:51 38.80456 -77.03043 2023 ft 196 kts 171°
2026-04-30 02:52 38.79057 -77.02570 2331 ft 220 kts 171°
2026-04-30 02:52 38.77481 -77.02085 2647 ft 244 kts 173°
2026-04-30 02:52 38.75765 -77.01620 3207 ft 260 kts 166°
2026-04-30 02:52 38.74232 -77.00300 3885 ft 279 kts 131°
2026-04-30 02:53 38.73441 -76.98001 4576 ft 289 kts 95°
2026-04-30 02:53 38.73665 -76.95501 5383 ft 289 kts 71°
2026-04-30 02:53 38.74336 -76.93072 6229 ft 290 kts 55°
2026-04-30 02:53 38.75601 -76.91101 7028 ft 287 kts 37°
2026-04-30 02:54 38.77246 -76.89658 7815 ft 288 kts 25°
2026-04-30 02:54 38.79017 -76.88419 8624 ft 293 kts 24°
2026-04-30 02:54 38.80820 -76.87150 9404 ft 299 kts 25°
2026-04-30 02:54 38.82642 -76.85817 10158 ft 304 kts 26°
2026-04-30 02:55 38.84522 -76.84408 10575 ft 323 kts 26°
2026-04-30 02:55 38.86452 -76.82813 10866 ft 347 kts 33°
2026-04-30 02:55 38.88362 -76.80772 11233 ft 366 kts 38°
2026-04-30 02:55 38.90281 -76.78557 11824 ft 375 kts 39°
2026-04-30 02:56 38.92228 -76.76285 12547 ft 381 kts 39°
2026-04-30 02:56 38.94205 -76.73982 13281 ft 386 kts 38°
2026-04-30 02:56 38.96210 -76.71650 13939 ft 391 kts 38°
2026-04-30 02:56 38.98242 -76.69290 14564 ft 396 kts 38°
2026-04-30 02:57 39.00293 -76.66905 15207 ft 400 kts 39°
2026-04-30 02:57 39.02317 -76.64420 15852 ft 405 kts 40°
2026-04-30 02:57 39.04330 -76.61860 16478 ft 410 kts 41°
2026-04-30 02:57 39.06342 -76.59287 17016 ft 416 kts 41°
2026-04-30 02:58 39.08404 -76.56648 17644 ft 420 kts 41°
2026-04-30 02:58 39.10365 -76.53850 18254 ft 427 kts 50°
2026-04-30 02:58 39.11813 -76.50457 18754 ft 437 kts 69°
2026-04-30 02:58 39.12532 -76.46648 19327 ft 439 kts 80°
2026-04-30 02:59 39.12992 -76.42749 19863 ft 442 kts 82°
2026-04-30 02:59 39.13414 -76.38806 20366 ft 446 kts 82°
2026-04-30 02:59 39.13842 -76.34830 20874 ft 450 kts 82°
2026-04-30 02:59 39.14273 -76.30882 21363 ft 453 kts 82°
2026-04-30 03:00 39.14717 -76.26849 21852 ft 456 kts 82°
2026-04-30 03:00 39.15166 -76.22785 22322 ft 460 kts 82°
2026-04-30 03:00 39.15629 -76.18690 22834 ft 463 kts 82°
2026-04-30 03:00 39.16101 -76.14574 23307 ft 466 kts 82°
2026-04-30 03:01 39.16580 -76.10429 23745 ft 468 kts 82°
2026-04-30 03:01 39.17060 -76.06261 24111 ft 472 kts 82°
2026-04-30 03:01 39.17542 -76.02061 24451 ft 476 kts 82°
2026-04-30 03:01 39.18025 -75.97828 24811 ft 479 kts 82°
2026-04-30 03:02 39.18723 -75.93691 25268 ft 479 kts 73°
2026-04-30 03:02 39.19917 -75.89676 25619 ft 481 kts 62°
2026-04-30 03:02 39.21668 -75.86010 25931 ft 481 kts 49°
2026-04-30 03:02 39.23921 -75.82840 26259 ft 480 kts 40°
2026-04-30 03:03 39.26374 -75.79915 26584 ft 481 kts 37°
2026-04-30 03:03 39.31496 -75.74339 27252 ft 483 kts 35°
2026-04-30 03:03 39.34094 -75.71575 27564 ft 485 kts 35°
2026-04-30 03:04 39.36667 -75.68825 27904 ft 488 kts 36°
2026-04-30 03:04 39.39280 -75.66006 28213 ft 490 kts 37°
2026-04-30 03:04 39.41891 -75.63163 28525 ft 492 kts 37°
2026-04-30 03:04 39.44499 -75.60305 28921 ft 491 kts 37°
2026-04-30 03:05 39.47099 -75.57442 29353 ft 490 kts 37°
2026-04-30 03:05 39.49687 -75.54585 29765 ft 489 kts 37°
2026-04-30 03:05 39.52272 -75.51729 30122 ft 488 kts 37°
2026-04-30 03:05 39.54855 -75.48873 30409 ft 488 kts 37°
2026-04-30 03:06 39.57438 -75.46016 30693 ft 489 kts 37°
2026-04-30 03:06 39.60026 -75.43151 30944 ft 489 kts 37°
2026-04-30 03:06 39.62579 -75.40323 31184 ft 489 kts 38°
2026-04-30 03:06 39.65164 -75.37456 31471 ft 489 kts 38°
2026-04-30 03:07 39.67745 -75.34591 31738 ft 488 kts 37°
2026-04-30 03:07 39.70323 -75.31727 32021 ft 488 kts 37°
2026-04-30 03:07 39.72902 -75.28859 32282 ft 488 kts 37°
2026-04-30 03:07 39.75479 -75.25991 32533 ft 487 kts 37°
2026-04-30 03:08 39.78035 -75.23102 32770 ft 489 kts 40°
2026-04-30 03:08 39.80403 -75.19916 32992 ft 490 kts 44°
2026-04-30 03:08 39.82701 -75.16642 33224 ft 490 kts 45°
2026-04-30 03:08 39.84968 -75.13323 33451 ft 490 kts 45°
2026-04-30 03:09 39.87187 -75.10027 33650 ft 491 kts 46°
2026-04-30 03:09 39.89427 -75.06676 33853 ft 491 kts 46°
2026-04-30 03:09 39.93956 -74.99899 33870 ft 499 kts 47°
2026-04-30 03:10 39.96197 -74.96479 34250 ft 494 kts 52°
2026-04-30 03:10 39.98204 -74.92857 34474 ft 493 kts 54°
2026-04-30 03:10 40.00152 -74.89177 34586 ft 494 kts 55°
2026-04-30 03:10 40.02070 -74.85461 34697 ft 494 kts 55°
2026-04-30 03:11 40.03973 -74.81719 34825 ft 495 kts 56°
2026-04-30 03:11 40.05844 -74.78019 34906 ft 496 kts 56°
2026-04-30 03:11 40.09646 -74.70492 34902 ft 496 kts 56°
2026-04-30 03:12 40.13443 -74.62986 34908 ft 494 kts 56°
2026-04-30 03:12 40.17229 -74.55498 34907 ft 493 kts 56°
2026-04-30 03:13 40.21465 -74.48504 34914 ft 489 kts 40°
2026-04-30 03:13 40.26549 -74.42682 34929 ft 489 kts 37°
2026-04-30 03:14 40.31821 -74.37056 34932 ft 488 kts 37°
2026-04-30 03:14 40.37093 -74.31478 34926 ft 487 kts 37°
2026-04-30 03:15 40.42347 -74.25872 34933 ft 487 kts 37°
2026-04-30 03:15 40.47592 -74.20236 34951 ft 487 kts 38°
2026-04-30 03:16 40.52686 -74.14385 34924 ft 487 kts 48°
2026-04-30 03:16 40.54743 -74.10860 34923 ft 486 kts 59°
2026-04-30 03:16 40.56238 -74.06960 34929 ft 484 kts 70°
2026-04-30 03:17 40.58630 -73.98674 34940 ft 486 kts 70°
2026-04-30 03:17 40.61235 -73.90414 34819 ft 492 kts 66°
2026-04-30 03:18 40.64421 -73.82444 34912 ft 492 kts 59°